Location: Dodge City Co - Operative Exchange Grain Elevator Number 8
(38.1218°N, 99.7124°W)
Time: 02:43:16
(UTC+00:00)

CENTAUR R/B - Pass Details

Date: 03 March 2021
Orbit: 742 x 1446 km, 63.4° (Epoch: 31 March)

Event Time Altitude Azimuth Distance (km) Brightness Sun altitude
Rises 12:02:27 0° 328° (NNW) 4,207 5.5 -13.6°
Reaches altitude 10° 12:05:10 10° 332° (NNW) 3,319 5.0 -13.0°
Maximum altitude 12:13:26 67° 54° (NE) 1,510 3.7 -11.4°
Drops below altitude 10° 12:22:18 10° 137° (SE) 3,553 6.1 -9.7°
Sets 12:25:18 0° 139° (SE) 4,518 6.6 -9.1°
